Regional Weather Roundup
Issued by NWS

Home | Current Version | Previous Version | Graphics & Text | Print | Product List | Glossary On
Versions: 1 2 3 4 5 6 7 8 9 10 11 12 13 14 15 16 17 18 19 20 21 22 23 24 25 26 27 28 29 30 31 32 33 34 35 36 37 38 39 40 41 42 43 44 45 46 47 48 49 50
260
ASUS44 KMEG 201010
RWRTN
TENNESSEE HOURLY STATE WEATHER ROUNDUP
NATIONAL WEATHER SERVICE MEMPHIS TN
500 AM CDT WED SEP 20 2017

TNZ002-004-019-021-049-052-054-088>092-201100-
WEST TENNESSEE

CITY           SKY/WX    TMP DP  RH WIND       PRES   REMARKS
MEMPHIS INTL   CLEAR     75  72  90 S7        29.93S
NWS MEMPHIS      N/A     74 N/A N/A MISG        N/A
JACKSON        CLEAR     73  72  96 S6        29.95S
DYERSBURG      CLEAR     73  70  90 S3        29.93S
SOMERVILLE     PTCLDY    73  70  88 VRB3      29.94R
COVINGTON      MOCLDY    73  70  88 S6        29.93S
BOLIVAR        PTCLDY    70  70 100 CALM      29.95S
PARIS          CLEAR     72  70  94 S5        29.94S
HUNTINGDON     CLEAR     72  70  94 CALM      29.94S
LEXINGTON      CLEAR     70  68  94 CALM      29.96S
SELMER         PTCLDY    70  68  94 SE5       29.97R
SAVANNAH       PTCLDY    68  68 100 CALM      29.96F
$$

TNZ008-025-027-028-033-062-065-066-201100-
NORTH MIDDLE TENNESSEE

CITY           SKY/WX    TMP DP  RH WIND       PRES   REMARKS
NASHVILLE      PTCLDY    67  65  93 CALM      29.99R
PORTLAND       CLOUDY    68  66  94 S5        29.98R
CLARKSVILLE    CLEAR     66  65  96 S3        29.96S FOG
SMYRNA           N/A    N/A N/A N/A MISG        N/A
COOKEVILLE     FOG       59  59 100 CALM      30.01S VSB 1
GALLATIN       CLOUDY    66  64  94 CALM      30.01R
CROSSVILLE     CLEAR     62  61  96 CALM      30.06R
$$

TNZ061-075-076-078-094-096-097-201100-
SOUTH MIDDLE TENNESSEE

CITY           SKY/WX    TMP DP  RH WIND       PRES   REMARKS
TULLAHOMA      CLOUDY    63  63 100 CALM      30.03R VSB 1/4
WINCHESTER     CLEAR     63  63 100 CALM        N/A
MCMINNVILLE    MOCLDY    61  61 100 CALM      30.02R VSB 1/2
COLUMBIA       PTCLDY    68  68 100 CALM      29.97S
SHELBYVILLE    CLEAR     64  64 100 E5        30.00S
$$

TNZ017-018-042-046-047-201100-
NORTHEAST TENNESSEE

CITY           SKY/WX    TMP DP  RH WIND       PRES   REMARKS
TRI CITIES     CLEAR     60  60 100 N3        30.06R FOG
ELIZABETHTON   PTCLDY    59  59 100 CALM      30.06R
$$

TNZ012-013-036-069-073-074-201100-
CENTRAL EAST TENNESSEE

CITY           SKY/WX    TMP DP  RH WIND       PRES   REMARKS
KNOXVILLE      PTCLDY    61  60  97 NE3       30.02R
OAK RIDGE      FOG       63  61  93 CALM      30.04R VSB 1/4
DOWNTOWN KNOXV FOG       63  63 100 CALM      30.02S VSB 1/2
GATLINBURG     CLEAR     59  57  94 CALM      30.03R
MORRISTOWN     PTCLDY    61  61 100 CALM      30.03S
JACKSBORO      FOG       63  63 100 CALM      30.06S VSB 0
$$

TNZ083-085-099-201100-
SOUTHEAST TENNESSEE

CITY           SKY/WX    TMP DP  RH WIND       PRES   REMARKS
CHATTANOOGA    FOG       66  65  96 W3        30.02S VSB 1/2
DAYTON         FOG       64  64 100 CALM      30.01S VSB 0
$$

SKY/WX REPORTED AS FAIR MEANS FEW OR NO CLOUDS BELOW
12 THOUSAND FEET.





USA.gov is the U.S. government's official web portal to all federal, state and local government web resources and services.